Back to catalog

CZ-6A DEB

AliveSSO
NORAD 54574·DEBRIS·🇨🇳 China

Launched Nov 11, 2022 from Taiyuan Satellite Launch Center

Loading…

Next Passes (next 24 hours)

TLE

FreshSource: Space-Track

Epoch: Sep 13, 2026, 08:33 UTC

1 54574U 22151MA  26256.35643727  .00001386  00000-0  32701-3 0  9998
2 54574  98.5550 303.6576 0100906  34.2226 326.5418 14.52847641201806

Track CZ-6A DEB in real time with AllMySat

Download on the App Store